Dewpoint
70 67 69 68 62 61 54 50 50 52 54 55 56 57 59 62 59 56 67 67 66 68 70 73 76 77 77 77 77 77 76 76 76 76 76 75 75 75 75 74 74 74 74 74 73 73 72 72 72
67 66 68 66 61 53 50 50 53 54 55 57 57 58 58 60 63 65 65 64 66 66 69 72 76 77 77 77 77 76 75 75 75 76 76 75 75 75 74 74 74 74 74 74 73 73 72 72 72
66 66 66 62 58 53 49 52 54 54 55 56 57 58 59 62 62 64 64 64 66 67 69 74 76 77 77 77 77 76 76 75 76 75 75 74 74 74 74 73 74 74 74 74 73 73 72 72 72
67 66 64 57 54 54 50 54 52 55 55 58 58 58 62 64 62 64 64 64 66 69 70 75 76 76 77 76 76 76 76 75 76 76 74 75 74 74 74 74 73 73 73 73 73 72 72 71 71
66 65 60 58 56 52 49 52 54 53 55 56 59 60 62 64 65 65 62 64 66 69 70 73 76 77 76 76 76 76 76 75 75 75 74 74 74 75 74 75 74 73 73 73 73 72 72 71 71
64 64 55 51 48 46 46 52 54 54 57 58 59 61 62 64 62 61 64 66 69 68 68 72 75 76 76 76 76 76 75 75 74 74 74 74 74 74 74 75 74 73 73 72 72 72 72 72 72
61 60 56 54 48 44 45 48 48 54 53 58 60 60 62 63 61 61 66 65 67 65 69 73 73 74 76 76 76 76 75 74 75 74 74 74 73 73 74 74 74 73 72 72 72 72 72 72 72
58 54 52 50 40 41 45 46 46 52 55 58 61 60 61 63 62 64 64 66 65 66 69 72 73 72 73 73 75 74 74 74 74 74 74 73 73 73 73 75 75 73 73 72 72 72 72 72 71
55 54 54 50 45 40 44 45 51 53 55 57 60 61 63 64 64 64 64 65 66 67 67 66 68 72 72 72 72 74 74 74 74 73 73 73 74 75 74 75 75 73 73 72 72 72 71 72 73
51 52 53 53 52 48 49 42 47 49 51 55 60 63 63 64 64 63 62 64 66 65 64 64 66 67 70 66 74 74 71 71 73 73 71 72 75 74 72 73 76 75 75 74 74 72 72 73 74
48 49 52 52 51 49 54 55 46 47 48 57 60 62 62 63 63 63 62 63 64 66 62 62 66 69 68 70 71 70 70 70 73 75 75 74 75 76 73 74 73 73 75 73 72 73 72 71 72
44 47 50 52 50 48 54 56 42 46 48 56 60 62 62 63 62 62 62 62 63 65 62 62 68 71 72 71 68 69 67 69 70 72 75 77 73 75 72 73 74 75 73 74 74 73 74 70 71
42 44 49 51 46 50 56 58 46 44 49 55 59 61 61 62 62 63 63 62 64 64 62 64 69 72 76 73 70 69 70 69 69 73 74 75 72 75 73 73 74 75 76 73 74 72 73 70 70
41 42 42 43 47 42 47 52 47 45 48 54 58 59 60 60 62 63 63 63 65 62 62 65 69 72 74 76 78 74 74 70 72 72 74 76 76 74 73 75 73 75 75 75 74 75 74 71 71
37 38 40 41 41 41 39 46 46 49 49 51 55 58 57 59 62 63 62 64 64 62 63 66 67 70 74 75 75 75 74 68 71 72 75 75 77 77 77 73 76 72 75 77 73 74 74 71 71
37 36 36 40 41 41 39 37 50 55 57 51 53 56 57 57 57 62 63 63 63 61 65 67 62 69 72 74 75 74 71 71 73 71 72 74 76 78 79 76 73 76 76 74 74 75 73 72 72
36 32 35 36 39 38 38 36 52 55 56 52 53 53 55 57 57 59 59 61 62 64 67 66 67 68 71 74 74 73 74 74 72 72 73 75 76 76 77 76 75 76 76 73 73 71 75 71 71
32 32 33 34 37 35 34 34 47 49 53 51 53 54 55 55 56 59 59 60 62 65 68 68 68 73 73 73 75 72 72 72 72 73 72 76 76 76 78 75 74 76 72 75 74 75 74 71 68
32 32 28 29 33 33 33 38 46 54 57 55 51 55 53 54 57 59 59 60 62 64 68 69 71 74 72 72 71 71 69 72 72 73 73 76 76 76 79 77 73 77 75 75 75 75 73 71 67
32 29 25 25 28 33 34 35 50 55 56 56 56 61 55 54 55 59 60 60 61 65 68 71 72 74 73 72 72 71 72 70 70 72 74 75 75 77 76 76 77 76 73 76 75 76 72 71 69
31 30 27 23 24 34 34 33 38 50 51 55 59 56 54 55 54 57 59 60 61 64 68 70 72 75 74 73 73 74 73 74 70 69 71 73 75 76 77 77 77 77 75 76 75 75 73 68 67
25 31 29 25 23 22 33 30 39 38 41 51 48 50 51 54 56 55 57 59 60 64 67 71 73 74 74 75 72 73 68 67 68 69 70 72 74 75 77 77 76 77 77 75 76 75 75 73 68
22 23 26 26 24 22 23 29 32 40 37 36 43 44 51 52 55 55 56 59 60 62 66 69 73 74 75 74 75 71 71 68 69 69 73 73 76 76 76 77 78 77 76 76 76 76 75 76 72
17 16 18 22 22 22 24 29 31 33 39 35 39 40 49 51 54 56 57 58 59 61 65 68 72 74 75 75 74 76 72 72 67 69 70 72 74 75 77 77 77 77 76 76 76 78 76 76 76
15 14 14 15 17 20 23 24 32 33 36 35 37 39 42 51 53 57 58 57 60 61 63 66 73 74 75 75 75 74 76 73 73 76 68 71 70 72 74 76 78 76 77 78 77 78 77 76 75
16 14 16 20 15 14 22 23 27 32 32 35 37 39 40 45 53 56 58 59 60 60 63 66 71 74 75 74 75 75 75 75 71 73 71 69 70 70 75 75 75 76 76 76 78 77 76 76 75
17 15 13 13 12 11 14 21 22 28 29 31 29 37 40 42 51 55 57 58 59 60 63 65 70 74 75 75 76 76 75 75 74 73 74 74 73 71 77 75 75 76 77 77 77 75 76 76 76
17 17 13 13 19 19 13 23 22 29 31 31 29 31 37 43 47 53 56 59 59 59 62 65 69 73 75 75 76 76 76 75 74 75 73 73 75 76 77 76 76 76 76 77 77 76 76 76 75
16 17 16 12 14 15 15 14 22 32 31 32 31 33 33 40 46 50 54 58 60 60 60 64 67 72 74 75 76 76 76 76 75 73 74 74 75 76 78 77 76 75 76 76 77 76 75 75 75
17 18 20 21 26 18 19 15 24 24 28 28 30 33 34 39 46 49 53 57 59 60 60 62 64 67 73 75 76 76 76 77 76 75 74 75 76 77 76 77 76 76 75 76 76 75 73 75 74
Lifted_Index
0 -0 -1 -2 -2 -2 -2 -2 -2 -1 -1 -1 -1 -2 -2 -2 -1 0 1 1 0 -1 -2 -3 -5 -5 -5 -6 -6 -6 -5 -5 -5 -6 -6 -6 -6 -6 -6 -6 -5 -5 -5 -5 -5 -5 -5 -4 -4
-0 -1 -1 -2 -2 -2 -2 -2 -1 -1 -1 -1 -1 -2 -2 -1 -0 0 1 1 0 -1 -2 -4 -5 -5 -5 -6 -6 -5 -5 -5 -5 -6 -6 -6 -6 -6 -6 -5 -5 -5 -5 -5 -5 -5 -5 -5 -5
-1 -2 -2 -2 -2 -2 -2 -2 -2 -1 -1 -1 -2 -2 -2 -1 0 1 1 0 -0 -1 -2 -4 -5 -5 -5 -6 -5 -5 -5 -5 -5 -6 -5 -6 -6 -6 -5 -5 -5 -5 -5 -5 -5 -5 -5 -5 -5
-2 -2 -2 -2 -2 -2 -2 -2 -2 -1 -1 -1 -2 -2 -1 -0 0 1 1 -0 -1 -2 -3 -4 -5 -5 -5 -5 -5 -5 -5 -5 -5 -5 -5 -5 -5 -6 -6 -5 -5 -5 -5 -5 -5 -5 -5 -5 -5
-2 -2 -2 -2 -2 -2 -2 -2 -1 -1 -1 -2 -2 -1 -1 -0 -0 0 0 -0 -2 -2 -3 -3 -4 -5 -5 -5 -5 -5 -5 -5 -5 -5 -5 -5 -5 -6 -6 -5 -5 -5 -4 -5 -5 -5 -5 -4 -4
-2 -2 -2 -2 -2 -2 -2 -2 -2 -1 -1 -2 -2 -1 -1 -0 0 1 0 -1 -2 -2 -3 -3 -4 -5 -5 -5 -5 -5 -5 -5 -5 -5 -5 -5 -5 -5 -5 -5 -5 -4 -4 -4 -4 -5 -5 -4 -4
-2 -2 -2 -2 -2 -2 -2 -2 -1 -1 -1 -1 -2 -1 -1 -0 0 0 -0 -1 -1 -2 -3 -3 -4 -4 -4 -5 -5 -5 -5 -5 -5 -5 -5 -5 -5 -5 -5 -5 -4 -4 -4 -4 -4 -4 -5 -4 -4
-2 -2 -1 -1 -1 -1 -1 -1 -1 -1 -1 -2 -2 -2 -1 -1 -0 -0 -1 -1 -2 -2 -3 -3 -3 -4 -4 -4 -4 -5 -5 -5 -5 -5 -5 -4 -4 -4 -4 -4 -4 -4 -4 -4 -4 -4 -4 -4 -4
-1 -1 -1 -1 -1 -1 -1 -0 -0 -1 -1 -2 -2 -2 -2 -1 -1 -1 -1 -1 -2 -2 -2 -2 -3 -3 -4 -4 -4 -4 -4 -4 -5 -4 -3 -3 -4 -4 -4 -4 -4 -3 -3 -4 -4 -4 -4 -4 -4
-1 -1 -1 -1 -1 -1 -1 -0 0 0 -1 -2 -2 -2 -2 -2 -2 -1 -1 -1 -2 -2 -1 -1 -2 -2 -3 -3 -3 -4 -4 -4 -4 -4 -2 -3 -4 -4 -4 -4 -4 -4 -4 -4 -4 -4 -4 -4 -4
-0 -1 -1 -1 -1 -1 -2 -1 -0 0 0 -1 -2 -2 -2 -2 -2 -2 -1 -1 -1 -2 -1 -1 -2 -2 -3 -3 -3 -3 -3 -3 -4 -4 -3 -3 -4 -4 -4 -4 -4 -4 -4 -4 -4 -4 -4 -4 -4
-0 -1 -1 -1 -1 -2 -2 -2 -1 0 0 -1 -2 -2 -2 -2 -2 -2 -2 -1 -2 -2 -1 -1 -2 -3 -3 -3 -3 -2 -2 -3 -4 -4 -4 -4 -4 -4 -3 -3 -4 -4 -4 -4 -4 -4 -4 -3 -3
-0 -1 -2 -2 -2 -2 -2 -1 -1 -0 -0 -1 -2 -2 -2 -3 -2 -2 -2 -2 -2 -2 -1 -2 -2 -3 -3 -3 -3 -2 -2 -2 -3 -4 -5 -4 -4 -4 -4 -3 -4 -4 -4 -4 -4 -4 -3 -3 -2
-0 -1 -2 -2 -2 -2 -2 -2 -1 -0 -1 -1 -2 -2 -2 -3 -3 -3 -3 -3 -2 -2 -1 -2 -3 -3 -4 -4 -3 -3 -2 -2 -2 -3 -4 -4 -4 -4 -4 -4 -3 -4 -4 -4 -4 -4 -3 -3 -3
0 -1 -2 -2 -2 -2 -2 -2 -1 -1 -1 -1 -2 -2 -2 -2 -3 -3 -3 -3 -2 -2 -1 -2 -2 -3 -4 -4 -4 -4 -3 -2 -2 -2 -3 -4 -4 -4 -4 -4 -4 -4 -4 -4 -4 -4 -4 -3 -3
1 -0 -1 -2 -2 -2 -1 -1 -1 -1 -1 -2 -2 -1 -2 -2 -2 -3 -3 -3 -2 -2 -2 -2 -2 -3 -4 -4 -4 -4 -3 -2 -2 -2 -3 -4 -4 -5 -5 -4 -4 -4 -4 -4 -4 -4 -4 -3 -3
2 1 -0 -1 -2 -1 -1 -1 -1 -1 -1 -2 -2 -1 -1 -2 -2 -2 -2 -2 -2 -2 -2 -2 -2 -3 -4 -4 -4 -4 -3 -3 -2 -2 -3 -4 -5 -5 -5 -4 -4 -4 -4 -4 -4 -4 -4 -3 -3
3 2 1 -1 -1 -1 -1 -1 -1 -1 -1 -2 -3 -2 -2 -2 -2 -2 -2 -2 -2 -2 -2 -2 -3 -4 -4 -4 -4 -4 -3 -3 -2 -2 -3 -4 -5 -5 -5 -5 -4 -4 -4 -4 -4 -4 -4 -3 -1
3 2 1 -0 -1 -0 -1 -1 -1 -1 -1 -2 -3 -3 -2 -2 -2 -2 -2 -2 -2 -2 -3 -3 -3 -4 -4 -4 -4 -4 -3 -2 -2 -2 -3 -4 -5 -5 -5 -5 -4 -4 -4 -4 -5 -4 -4 -2 -0
3 2 1 -0 -0 -0 -1 -1 -2 -2 -1 -2 -2 -3 -3 -2 -2 -2 -2 -2 -2 -2 -3 -3 -4 -5 -5 -4 -4 -4 -3 -3 -2 -2 -3 -4 -5 -5 -6 -5 -4 -4 -4 -4 -4 -4 -4 -2 -0
4 3 1 -0 -1 -1 -0 -1 -2 -2 -2 -1 -2 -2 -2 -2 -2 -2 -2 -2 -2 -2 -3 -4 -4 -5 -5 -4 -4 -4 -3 -3 -2 -2 -3 -4 -5 -6 -6 -5 -5 -4 -4 -4 -4 -4 -3 -2 -0
5 4 2 0 -1 -1 -1 -1 -1 -1 -1 -2 -2 -3 -2 -3 -3 -2 -2 -1 -1 -2 -3 -4 -4 -5 -5 -5 -4 -4 -3 -2 -2 -2 -3 -4 -5 -6 -6 -6 -5 -5 -4 -4 -4 -4 -4 -2 -1
5 4 2 1 -0 -1 -1 -1 -1 -1 -1 -1 -2 -3 -3 -3 -3 -2 -2 -1 -1 -2 -3 -4 -4 -5 -5 -5 -4 -4 -3 -2 -2 -2 -3 -4 -5 -6 -7 -7 -6 -5 -5 -5 -5 -5 -4 -3 -3
4 3 2 1 0 -0 -0 -0 -0 -0 -0 -0 -1 -2 -3 -3 -3 -3 -2 -1 -1 -1 -2 -3 -4 -5 -5 -5 -5 -4 -4 -3 -3 -3 -3 -4 -5 -6 -6 -7 -6 -6 -5 -5 -5 -5 -5 -5 -4
4 3 2 1 1 1 0 0 0 -0 -0 -0 -0 -1 -2 -3 -3 -3 -2 -2 -1 -1 -2 -3 -4 -5 -5 -5 -5 -5 -4 -4 -3 -3 -3 -3 -4 -5 -6 -6 -6 -6 -6 -6 -6 -6 -6 -5 -5
4 4 3 1 0 1 1 1 1 0 -0 -1 -1 -1 -2 -3 -3 -3 -3 -2 -1 -1 -2 -3 -4 -5 -6 -5 -5 -5 -5 -4 -4 -3 -3 -3 -4 -4 -5 -6 -6 -6 -6 -6 -7 -7 -6 -6 -6
4 4 3 1 -0 -0 0 1 1 1 0 -0 -1 -1 -1 -2 -3 -3 -3 -2 -2 -1 -1 -3 -4 -6 -6 -6 -6 -5 -5 -4 -4 -4 -4 -4 -4 -5 -6 -6 -6 -7 -7 -7 -7 -7 -7 -6 -6
4 4 3 2 0 -1 -1 -0 0 0 0 0 -0 -1 -1 -2 -3 -3 -3 -3 -2 -2 -2 -2 -4 -5 -6 -6 -6 -6 -5 -5 -5 -4 -4 -5 -5 -6 -6 -7 -7 -7 -7 -8 -8 -7 -7 -7 -7
3 3 3 2 1 0 -1 -1 -0 0 0 0 0 -0 -0 -2 -2 -3 -3 -3 -3 -2 -2 -2 -3 -5 -6 -6 -6 -6 -6 -6 -5 -5 -5 -5 -6 -7 -7 -8 -7 -7 -7 -8 -8 -8 -7 -7 -7
4 3 3 3 2 1 -0 -0 -0 0 0 0 0 0 0 -1 -2 -3 -3 -3 -3 -2 -2 -2 -3 -4 -6 -6 -6 -6 -6 -6 -6 -6 -5 -6 -6 -7 -8 -8 -8 -8 -7 -8 -8 -8 -8 -8 -8